Glendive, MT

5:49 PM MST on December 05, 2019 (GMT -0700)
Dawson Community

Weather History for KGDV - October, 2019

Change the Weather History Date:

Thursday, October 3, 2019

  Actual Average Record
Temperature  
Mean Temperature 46 °F 53 °F  
Max Temperature 57 °F 67 °F 82 °F (2011)
Min Temperature 34 °F 40 °F 24 °F (2017)
Degree Days  
Heating Degree Days 19 12  
Month to date heating degree days 76 34  
Year to date heating degree days 5943 4433  
Since 1 July heating degree days 377 141  
Cooling Degree Days 0 0  
Month to date cooling degree days 0 0  
Year to date cooling degree days 465 382  
Since 1 July cooling degree days 465 382  
Moisture  
Dew Point 36 °F    
Average Humidity 86    
Maximum Humidity 100    
Minimum Humidity 47    
Precipitation  
Precipitation T in 0.05 in 0.49 in (2012)
Month to date precipitation 0.37 0.15  
Year to date precipitation 17.54 11.81  
Sea Level Pressure  
Sea Level Pressure 30.23 in    
Wind  
Wind Speed 5 mph (SE)    
Max Wind Speed 14 mph    
Max Gust Speed -    
Visibility 7 miles    
Events Fog    
T = Trace of Precipitation, MM = Missing Value Source: NWS Daily Summary

Daily Weather History Graph

Daily Weather History Graph

Search for Another Location

Airport or City:

Astronomy

Oct. 03, 2019 Rise Set
Actual Time 7:00 AM MDT 6:35 PM MDT
Civil Twilight 6:30 AM MDT 7:05 PM MDT
Nautical Twilight 5:54 AM MDT 7:40 PM MDT
Astronomical Twilight 5:18 AM MDT 8:16 PM MDT
Moon 12:54 PM MDT (10/3) 9:55 PM MDT (10/3)
Length of Visible Light 12h 35m
Length of Day
11h 34m
Waxing Crescent, 30% of the Moon is Illuminated
Oct 3
Waxing Crescent
Oct 5
First Quarter
Oct 13
Full
Oct 21
Last Quarter
Oct 27
New

Hourly Weather History & Observations

Time (MDT) Temp. Windchill Dew Point Humidity Pressure Visibility Wind Dir Wind Speed Gust Speed Precip Events Conditions
12:20 AM 35.6 °F - 33.8 °F 93% 30.20 in 9.0 mi Calm Calm - N/A   Overcast
12:56 AM 35.1 °F - 34.0 °F 96% 30.28 in 10.0 mi Calm Calm - N/A   Overcast
1:56 AM 35.1 °F 32.2 °F 34.0 °F 96% 30.29 in 9.0 mi Variable 3.5 mph - N/A   Overcast
2:53 AM 35.6 °F 32.8 °F 35.6 °F 100% 30.21 in 9.0 mi WSW 3.5 mph - N/A   Overcast
2:56 AM 36.0 °F 33.3 °F 35.1 °F 97% 30.28 in 9.0 mi West 3.5 mph - N/A   Overcast
3:56 AM 36.0 °F - 34.0 °F 93% 30.27 in 10.0 mi Calm Calm - N/A   Overcast
4:56 AM 35.1 °F - 34.0 °F 96% 30.27 in 10.0 mi Calm Calm - N/A   Overcast
5:56 AM 35.1 °F 32.2 °F 34.0 °F 96% 30.28 in 10.0 mi SE 3.5 mph - N/A   Overcast
6:25 AM 35.6 °F 29.9 °F 33.8 °F 93% 30.22 in 10.0 mi South 6.9 mph - N/A   Overcast
6:56 AM 35.1 °F 29.3 °F 34.0 °F 96% 30.30 in 10.0 mi SSE 6.9 mph - N/A   Overcast
7:25 AM 33.8 °F 29.6 °F 33.8 °F 100% 30.22 in 5.0 mi SE 4.6 mph - N/A   Overcast
7:39 AM 35.6 °F 30.7 °F 33.8 °F 93% 30.22 in 2.0 mi SSE 5.8 mph - N/A   Overcast
7:48 AM 35.6 °F 31.7 °F 33.8 °F 93% 30.22 in 1.0 mi SE 4.6 mph - N/A   Overcast
7:56 AM 35.1 °F 29.3 °F 34.0 °F 96% 30.29 in 0.5 mi SE 6.9 mph - N/A Fog Fog
8:02 AM 33.8 °F 27.7 °F 33.8 °F 100% 30.22 in 1.0 mi SSE 6.9 mph - N/A   Overcast
8:08 AM 35.6 °F 29.9 °F 33.8 °F 93% 30.23 in 0.5 mi SSE 6.9 mph - N/A Fog Fog
8:17 AM 35.6 °F 28.6 °F 33.8 °F 93% 30.23 in 1.0 mi SE 9.2 mph - N/A   Overcast
8:29 AM 33.8 °F 28.6 °F 33.8 °F 100% 30.23 in 1.0 mi SE 5.8 mph - N/A   Overcast
8:32 AM 35.6 °F 29.9 °F 33.8 °F 93% 30.23 in 0.5 mi SSE 6.9 mph - N/A Fog Fog
8:56 AM 35.1 °F 30.1 °F 34.0 °F 96% 30.30 in 0.2 mi SSE 5.8 mph - N/A Fog Fog
9:08 AM 35.6 °F 29.9 °F 35.6 °F 100% 30.23 in 0.5 mi South 6.9 mph - N/A Fog Fog
9:24 AM 35.6 °F 31.7 °F 35.6 °F 100% 30.23 in 1.0 mi SSE 4.6 mph - N/A   Overcast
9:27 AM 35.6 °F 29.9 °F 35.6 °F 100% 30.23 in 2.0 mi SE 6.9 mph - N/A   Overcast
9:56 AM 36.0 °F 29.6 °F 36.0 °F 100% 30.30 in 10.0 mi SSE 8.1 mph - N/A   Overcast
10:56 AM 39.9 °F 35.1 °F 37.9 °F 93% 30.30 in 10.0 mi South 6.9 mph - N/A   Overcast
11:17 AM 41.0 °F 36.4 °F 37.4 °F 87% 30.23 in 10.0 mi SSW 6.9 mph - N/A   Overcast
11:35 AM 42.8 °F - 39.2 °F 87% 30.22 in 8.0 mi North - - N/A   Overcast
11:56 AM 45.0 °F 40.6 °F 39.9 °F 82% 30.28 in 10.0 mi SSE 8.1 mph - N/A   Overcast
12:16 PM 46.4 °F 43.5 °F 39.2 °F 76% 30.22 in 10.0 mi South 5.8 mph - N/A   Mostly Cloudy
12:51 PM 48.2 °F - 41.0 °F 76% 30.21 in 10.0 mi East 8.1 mph - N/A   Partly Cloudy
12:56 PM 48.0 °F - 41.0 °F 77% 30.26 in 10.0 mi Variable 6.9 mph - N/A   Partly Cloudy
1:56 PM 51.1 °F - 42.1 °F 71% 30.22 in 10.0 mi East 6.9 mph - N/A   Clear
2:56 PM 55.9 °F - 39.0 °F 53% 30.19 in 10.0 mi SSE 9.2 mph - N/A   Clear
3:56 PM 57.0 °F - 37.0 °F 47% 30.17 in 10.0 mi ESE 8.1 mph - N/A   Clear
4:56 PM 57.0 °F - 37.0 °F 47% 30.16 in 10.0 mi SSE 9.2 mph - N/A   Clear
5:56 PM 54.0 °F - 37.9 °F 55% 30.16 in 10.0 mi ESE 8.1 mph - N/A   Clear
6:56 PM 48.9 °F - 37.9 °F 66% 30.16 in 10.0 mi East 9.2 mph - N/A   Clear
7:56 PM 46.9 °F - 39.9 °F 77% 30.17 in 10.0 mi East 10.4 mph - N/A   Clear
8:56 PM 46.9 °F - 39.9 °F 77% 30.17 in 9.0 mi ESE 12.7 mph - N/A   Clear
9:56 PM 45.0 °F 38.5 °F 39.0 °F 80% 30.16 in 10.0 mi SE 13.8 mph - 0.00 in   Clear
10:56 PM 43.0 °F 37.2 °F 37.9 °F 82% 30.15 in 10.0 mi ESE 10.4 mph - N/A   Clear
11:56 PM 42.1 °F 37.1 °F 37.9 °F 85% 30.12 in 10.0 mi SE 8.1 mph - N/A   Clear